sat.trackr.live / text

‹ back to catalog

STARLINK-32733

NORAD 62477 · 2024-254R

PAYLOAD ACTIVE UNKNOWN

§ Identity

Operator
Country
US
Launch date
2024-12-31
Launch site
AFETR
Launch vehicle
Mass (kg)
RCS (m²)

Purposes: comms

External: N2YO · Heavens-Above · Gunter

§ Orbital elements

Epoch: 2026-09-21T13:30:46.865952Z

Period
94.27 min
Inclination
42.9989°
Eccentricity
0.0000440
Mean motion
15.27529851 rev/d
Perigee alt
482.9 km
Apogee alt
483.5 km
Semi-major
6,861.3 km
B*
-3.2037e-4
RAAN
349.7990°
Arg perigee
252.6577°
Mean anomaly
107.4226°
Rev number
9,761

§ Raw data

STARLINK-327331 62477U 24254R   26264.56304243 -.00009053  00000+0 -32037-3 0  99962 62477  42.9989 349.7990 0000440 252.6577 107.4226 15.27529851 97612

JSON: /api/v1/satellites/62477 · /tle

For live sub-satellite position, see the globe view (requires WebGL).

§ Visibility from observer

Set your observer location to see the next 7 days of passes ≥ 10°. The values pass through the URL so the page stays shareable.

No JS? Fill the form by hand. The geolocation button needs JavaScript.